This is the latest recevied weather packets stored in our database for station/object OZ7MKS. If no packets are shown the sender has not sent any weather packets the latest 10 day(s).
| Time | Temp. | Humidity | Pressure | Rain* | Wind** | Luminosity | Snow |
|---|---|---|---|---|---|---|---|
| 1778082604 | 12.78° C | 60% | 1012.3 hPa | 0 mm | - | - | - |
| 1778081704 | 13.33° C | 61% | 1012.3 hPa | 0 mm | - | - | - |
| 1778081404 | 13.33° C | 60% | 1012.3 hPa | 0 mm | - | - | - |
| 1778080805 | 13.33° C | 58% | 1012.2 hPa | 0 mm | - | - | - |
| 1778079304 | 14.44° C | 57% | 1012.2 hPa | 0 mm | - | - | - |
| 1778076904 | 14.44° C | 57% | 1012.1 hPa | 0 mm | - | - | - |
| 1778076004 | 13.33° C | 58% | 1012.2 hPa | 0 mm | - | - | - |
| 1778073904 | 13.89° C | 61% | 1012.2 hPa | 0 mm | - | - | - |
| 1778072704 | 13.89° C | 61% | 1012.3 hPa | 0 mm | - | - | - |
| 1778072104 | 13.89° C | 60% | 1012.4 hPa | 0 mm | - | - | - |
| 1778070904 | 13.89° C | 59% | 1012.4 hPa | 0 mm | - | - | - |
| 1778070604 | 14.44° C | 57% | 1012.4 hPa | 0 mm | - | - | - |
| 1778070303 | 14.44° C | 59% | 1012.2 hPa | 0 mm | - | - | - |
| 1778069404 | 14.44° C | 61% | 1012.4 hPa | 0 mm | - | - | - |
| 1778069104 | 14.44° C | 59% | 1012.4 hPa | 0 mm | - | - | - |
| 1778067904 | 14.44° C | 58% | 1012.4 hPa | 0 mm | - | - | - |
| 1778066703 | 13.89° C | 59% | 1012.5 hPa | 0 mm | - | - | - |
| 1778064004 | 13.89° C | 59% | 1012.6 hPa | 0 mm | - | - | - |
| 1778063103 | 13.33° C | 60% | 1012.7 hPa | 0 mm | - | - | - |
| 1778058904 | 13.33° C | 62% | 1012.8 hPa | 0 mm | - | - | - |
| 1778058304 | 12.78° C | 65% | 1012.8 hPa | 0 mm | - | - | - |
| 1778055304 | 12.22° C | 72% | 1012.8 hPa | 0 mm | - | - | - |
| 1778054404 | 12.22° C | 72% | 1012.8 hPa | 0 mm | - | - | - |
| 1778052304 | 12.22° C | 75% | 1012.7 hPa | 0 mm | - | - | - |
| 1778050204 | 11.11° C | 77% | 1012.5 hPa | 0 mm | - | - | - |
* Rain latest hour (hover to see other rain measurements)
** Current wind speed in m/s (hover to see current wind gust speed)